Aérodrome :
LOGIN :

S'inscrire | Disclaimer

   EN    FR    IT 

 










Légende :    VFR   VFR Marginal   IFR   IFR Intensif   IFR Très Intensif
Visi : 
Plafond : 
>= 8 km
>= 3000ft
5 à 8 km
1000 à 3000 ft
1500m à 5 km
500 à 1000 ft
800 à 1500m
200 à 500 ft
< 800m
< 200 ft
Symboles :   Orages  Brouillard  Fortes neiges  Fortes précipitations  Vent > 20 kt
SIGMETs :   Divers  Orages  Givrage  Turbulence  Onde Orograph.  Cendres Volcan.







- Altitude de l'aérodrome : 194 ft
- Code IATA : ANE
- Voir les cartes d'approche


LFJR - Angers Marcé

DERNIER METAR :
  • 230430Z AUTO 30003KT 260V330 9999 -RA BKN018 OVC023 04/03 Q0997

METARs EXPIRÉS :
  • 230400Z AUTO 30004KT 260V340 9999 SCT021/// SCT029/// BKN035/// ///TCU 04/03 Q0997
  • 230330Z AUTO 28004KT 250V320 9999 -RA FEW014/// BKN019/// BKN030/// ///TCU 04/03 Q0997
  • 230300Z AUTO 28004KT 250V310 8000 -RA FEW014/// SCT029/// BKN035/// ///TCU 04/03 Q0998
  • 230230Z AUTO 28003KT 240V320 9999 -RA BKN016/// BKN023/// OVC037/// ///TCU 04/03 Q0998
  • 230200Z AUTO 27003KT 9999 SCT019/// BKN025/// BKN035/// ///TCU 03/03 Q0998

Prévision TAF périmée.
Pas de NOTAMs connus pour ce terrain.



MET'MAP, la Météo Aéronautique d'un coup d'oeil ! - Copyright ORBIFLY Décembre 2007 - Disclaimer

ORBIFLY MET'MAP TEAM :

Programmation & Développement : Alexandra Zaïnal
Conception & Développement : Baudouin d'Aumeries
Co-Programmation & Développement : Marc-Olivier Méhu
Soutien technique & logistique : Manuel Goepfert

Contact : metmap@orbifly.com




SOURCES & CREDITS :

   NOAA